"TOA5","AWS1","CR1000","7964","CR1000.Std.14","CPU:AWS1_114.CR1","64363","TBL110"
"TIMESTAMP","RECORD","Wind_spd_WVc(1)","Wind_spd_WVc(2)","Air_Temp_Avg","Humidity_Avg","SW_upper_Wm2_Avg","Rain_Tot","Press_Avg","Issui_Tot","Depth_cm","SR50A_Raw","Quality","Ground_Temp_Avg(1)","Ground_Temp_Avg(2)","SW_lower_Wm2_Avg","Albedo_Avg","SWC_per(1)","SWC_per(2)","Period(1)","Period(2)"
"TS","RN","","","","","","","","","","","","","","","","","","",""
"","","WVc","WVc","Avg","Avg","Avg","Tot","Avg","Tot","Smp","Smp","Smp","Avg","Avg","Avg","Avg","Smp","Smp","Smp","Smp"
"2018-04-15 00:00:00",336301,0.693,317.1,7.356,100,0.06290603,0.5,857.3012,0.5,-3.119,3.168,191,4.961,4.319,0.05686254,0.096,54.86,62.42,34.48,36.23
"2018-04-15 00:10:00",336302,0.743,136.6,7.889,100,0.4246157,0.5,857.1161,0.5,-3.337,3.166,184,4.961,4.314,0.4586912,0.959,54.92,62.78,34.49,36.31
"2018-04-15 00:20:00",336303,0.584,148,8.36,100,0.4167524,0.5,856.8487,0.5,-3.486,3.166,187,4.949,4.342,0.4018287,0.836,54.92,63.02,34.49,36.36
"2018-04-15 00:30:00",336304,0.808,28.26,8.45,100,0.1572651,0.5,856.6229,1,-3.839,3.169,192,4.924,4.451,0.03790836,0.112,55.03,63.2,34.52,36.4
"2018-04-15 00:40:00",336305,0.792,358.1,8.53,100,0.1336753,1,856.4432,0.5,-3.738,3.168,192,4.918,4.476,0.01137251,0.024,55.09,63.45,34.53,36.46
"2018-04-15 00:50:00",336306,0.906,7.759,8.91,100,0.3774362,0.5,856.2756,0.5,-3.653,3.164,193,4.918,4.459,0.231241,0.429,55.09,63.57,34.53,36.49
"2018-04-15 01:00:00",336307,0.665,357.6,9.16,100,0.2123079,0,856.1152,0.5,-3.499,3.162,193,4.915,4.442,0.01895418,0.04,55.15,63.99,34.55,36.58
"2018-04-15 01:10:00",336308,0.832,133.1,9.44,100,0.4010249,1,855.6518,0.5,-3.618,3.161,193,4.924,4.436,0.1288883,0.273,55.2,64.48,34.56,36.69
"2018-04-15 01:20:00",336309,0.555,343.8,9.56,100,0.1769181,0.5,855.5613,1,-3.944,3.165,185,4.962,4.411,0.0189538,0.04,55.2,64.91,34.56,36.78
"2018-04-15 01:30:00",336310,0.727,24.96,9.65,100,0.1769095,1,855.298,0.5,-3.576,3.16,194,5.01,4.381,0.003790539,0.008,55.26,65.65,34.57,36.95
"2018-04-15 01:40:00",336311,0.561,26.81,9.78,100,0.14152,1.5,855.199,1.5,-3.769,3.162,194,4.958,4.372,0,0,55.32,65.77,34.59,36.97
"2018-04-15 01:50:00",336312,0.818,120.3,9.9,100,0.1926045,1,854.8325,1,-3.647,3.159,190,4.906,4.364,0.05305865,0.096,55.43,65.77,34.61,36.97
"2018-04-15 02:00:00",336313,1.13,160.6,10.16,100,0.09040155,0.5,854.5545,0.5,-3.635,3.158,194,4.94,4.378,0.06063608,0.153,55.49,65.71,34.63,36.96
"2018-04-15 02:10:00",336314,0.835,149.9,10.29,100,0.02751239,0.5,854.207,0.5,-3.324,3.154,197,4.996,4.388,0,0,55.49,65.71,34.63,36.96
"2018-04-15 02:20:00",336315,1.064,155.5,10.58,100,0.03144243,0.5,853.8236,0.5,-3.878,3.158,183,5.014,4.396,0.01894781,0.04,55.49,65.77,34.63,36.97
"2018-04-15 02:30:00",336316,1.035,353,10.65,100,0.02358174,0,853.6088,0.5,-3.722,3.156,196,5.043,4.384,0,0,55.49,65.71,34.63,36.96
"2018-04-15 02:40:00",336317,0.721,28.65,10.55,100,0.003930287,1,853.4866,0.5,-3.702,3.157,195,5.067,4.36,0,0,55.49,65.71,34.63,36.96
"2018-04-15 02:50:00",336318,0.589,43.46,10.47,100,0.02751201,0,853.2549,0.5,-3.93,3.159,195,5.062,4.352,0,0,55.49,65.71,34.63,36.96
"2018-04-15 03:00:00",336319,0.687,54.38,10.71,100,0.2908412,1,852.9601,0.5,-3.666,3.154,190,5.13,4.352,0.1098968,0.273,55.43,65.71,34.61,36.96
"2018-04-15 03:10:00",336320,0.755,143.6,10.89,100,0.2122355,1,852.7937,1,-3.919,3.156,208,5.147,4.374,0.07200135,0.169,55.49,65.71,34.63,36.96
"2018-04-15 03:20:00",336321,0.956,95.6,11.16,100,0.3026321,1,852.7031,1,-3.556,3.151,200,5.208,4.419,0.04168499,0.096,55.55,65.71,34.64,36.96
"2018-04-15 03:30:00",336322,1.106,140.5,11.42,100,0.1768629,0.5,852.5851,0.5,-4.111,3.155,199,5.203,4.411,0.05305362,0.104,55.6,65.71,34.65,36.96
"2018-04-15 03:40:00",336323,1.059,118.7,11.6,100,0.07467545,0.5,852.4694,0.5,-3.699,3.15,201,5.22,4.396,0.01515818,0.032,55.6,65.71,34.65,36.96
"2018-04-15 03:50:00",336324,1.11,95.1,11.76,100,0.07467545,0,852.3556,0.5,-3.899,3.151,187,5.286,4.388,0.01136863,0.024,55.55,65.71,34.64,36.96
"2018-04-15 04:00:00",336325,0.889,92.3,11.9,100,0.01572115,0.5,852.2903,0,-4.001,3.152,187,5.303,4.365,0,0,55.49,65.71,34.63,36.96
"2018-04-15 04:10:00",336326,1.215,111,11.93,100,0.01572115,0.5,852.1871,0.5,-4.206,3.154,199,5.321,4.355,0.003789545,0.016,55.49,65.71,34.63,36.96
"2018-04-15 04:20:00",336327,1.144,58,12.05,100,0.01572115,0.5,851.9975,0.5,-3.894,3.15,209,5.375,4.365,0,0,55.43,65.71,34.61,36.96
"2018-04-15 04:30:00",336328,0.759,22.69,12.04,100,0,0,851.9427,0.5,-4.103,3.153,202,5.401,4.395,0,0,55.49,65.71,34.63,36.96
"2018-04-15 04:40:00",336329,0.17,292.9,11.36,100,0,1,851.9891,0.5,-3.919,3.156,203,5.472,4.429,0,0,55.43,65.71,34.61,36.96
"2018-04-15 04:50:00",336330,0.149,338.1,10.66,100,0,0,851.9891,0.5,-3.73,3.158,199,5.433,4.439,0,0,55.43,65.71,34.61,36.96
"2018-04-15 05:00:00",336331,0.184,8.27,10.37,100,0.01179086,0,852.025,0,-3.73,3.158,199,5.527,4.439,0,0,55.43,65.71,34.61,36.96
"2018-04-15 05:10:00",336332,0.008,283.8,10.35,100,0.01572115,0.5,852.2145,0.5,-3.628,3.157,226,5.559,4.439,0,0,55.37,65.71,34.6,36.96
"2018-04-15 05:20:00",336333,0,0,10.35,100,0.1690023,0.5,852.2397,0,-3.835,3.16,204,5.561,4.439,0,0,55.37,65.71,34.6,36.96
"2018-04-15 05:30:00",336334,0.175,284.2,10.09,100,0.03930287,0,852.1829,0,-3.94,3.162,189,5.573,4.439,0,0,55.37,65.71,34.6,36.96
"2018-04-15 05:40:00",336335,0.129,258.9,9.87,100,0.7664059,1,852.4904,1,-3.561,3.159,195,5.587,4.439,0,0,55.37,65.71,34.6,36.96
"2018-04-15 05:50:00",336336,0.004,289.5,9.82,100,1.741117,0.5,852.4862,1,-3.589,3.16,195,5.64,4.439,0,0,55.37,65.71,34.6,36.96
"2018-04-15 06:00:00",336337,0,0,9.76,100,1.91798,0,852.5178,0,-3.589,3.16,198,5.681,4.447,0.04168499,0.019,55.43,65.71,34.61,36.96
"2018-04-15 06:10:00",336338,0.083,274.1,9.82,100,1.430624,0.5,852.5536,0,-3.638,3.16,202,5.727,4.452,0,0,55.43,65.71,34.61,36.96
"2018-04-15 06:20:00",336339,0.21,292.9,9.75,100,1.458136,0,852.5768,0.5,-3.642,3.161,197,5.737,4.496,0,0,55.32,65.71,34.59,36.96
"2018-04-15 06:30:00",336340,0.142,311.8,9.66,100,3.305371,0.5,852.6525,0,-3.539,3.16,197,5.744,4.486,0.06063271,0.013,55.37,65.71,34.6,36.96
"2018-04-15 06:40:00",336341,0.039,267.2,9.57,100,12.36468,0.5,852.5283,0.5,-3.568,3.161,202,5.752,4.482,0.9663338,0.078,55.32,65.71,34.59,36.96
"2018-04-15 06:50:00",336342,0.11,293.1,9.47,100,11.19739,0,852.5641,0,-3.672,3.163,198,5.74,4.525,0.7351716,0.065,55.32,65.71,34.59,36.96
"2018-04-15 07:00:00",336343,0.024,236.1,9.36,100,7.070586,0,852.939,0,-3.648,3.163,199,5.805,4.549,0.3448485,0.048,55.32,65.71,34.59,36.96
"2018-04-15 07:10:00",336344,0.241,266.1,9.24,100,7.031283,0,853.1054,0.5,-3.65,3.164,197,5.823,4.552,0.2917949,0.038,55.26,65.65,34.57,36.95
"2018-04-15 07:20:00",336345,0.166,107.8,9.09,100,8.402953,0.5,853.1264,0,-3.703,3.165,193,5.822,4.532,0.4357976,0.052,55.2,65.71,34.56,36.96
"2018-04-15 07:30:00",336346,0.346,229.4,8.93,100,10.28163,0,853.2971,0,-3.401,3.163,215,5.822,4.527,0.640433,0.06,55.2,65.71,34.56,36.96
"2018-04-15 07:40:00",336347,0.214,225.8,8.85,100,12.71055,0.5,853.2887,0.5,-3.657,3.166,203,5.849,4.525,0.9208593,0.073,55.26,65.65,34.57,36.95
"2018-04-15 07:50:00",336348,0,0,8.79,100,11.46465,0.5,853.3497,0.5,-3.656,3.166,202,5.894,4.53,0.6896971,0.059,55.2,65.65,34.56,36.95
"2018-04-15 08:00:00",336349,0.125,66.63,8.74,100,8.324347,0.5,853.5351,1,-3.48,3.165,201,5.91,4.584,0.4774826,0.06,55.2,65.65,34.56,36.95
"2018-04-15 08:10:00",336350,0.111,316.6,8.54,100,9.920044,1,853.5856,0.5,-3.56,3.167,206,5.884,4.607,0.4812722,0.049,55.26,65.65,34.57,36.95
"2018-04-15 08:20:00",336351,0.116,50.52,8.5,100,10.7454,0.5,853.6846,1,-3.357,3.165,229,5.903,4.593,0.7844357,0.073,55.37,65.65,34.6,36.95
"2018-04-15 08:30:00",336352,0.141,308.5,8.16,100,10.92227,0.5,853.6383,0.5,-3.642,3.17,205,5.911,4.582,0.4774826,0.043,55.37,65.71,34.6,36.96
"2018-04-15 08:40:00",336353,0.329,277.6,7.61,100,8.733097,0.5,853.7562,0.5,-2.942,3.167,265,5.951,4.571,0.1591609,0.013,55.43,65.71,34.61,36.96
"2018-04-15 08:50:00",336354,0.167,261.7,7.284,100,11.32316,0.5,853.8763,0,-3.119,3.169,251,5.952,4.569,0.4471663,0.038,55.37,65.71,34.6,36.96
"2018-04-15 09:00:00",336355,0.405,309.1,7.145,100,23.2673,1,854.0131,1,-3.376,3.173,227,5.916,4.569,1.743191,0.074,55.37,65.71,34.6,36.96
"2018-04-15 09:10:00",336356,0.472,291.4,7.114,100,17.46619,0.5,854.1122,1,-3.603,3.175,204,5.917,4.566,1.352867,0.078,55.43,65.71,34.61,36.96
"2018-04-15 09:20:00",336357,0.553,66.21,7.159,100,16.42074,0.5,854.1248,0,-3.477,3.174,219,5.918,4.562,1.277076,0.077,55.49,65.71,34.63,36.96
"2018-04-15 09:30:00",336358,0.473,192.3,7.138,100,19.02259,0,854.0658,0,-3.603,3.175,202,5.979,4.578,1.58403,0.083,55.37,65.71,34.6,36.96
"2018-04-15 09:40:00",336359,0.209,304,6.985,100,17.08889,0,854.1606,0,-3.783,3.178,203,5.992,4.634,1.148232,0.066,55.37,65.71,34.6,36.96
"2018-04-15 09:50:00",336360,0.319,193.1,7.028,100,18.91647,0.5,854.1901,0.5,-4.109,3.18,197,5.996,4.689,1.455185,0.076,55.32,65.71,34.59,36.96
"2018-04-15 10:00:00",336361,0.355,289.9,6.908,100,30.14923,0.5,854.2365,0.5,-3.859,3.179,205,6.005,4.696,2.49352,0.082,55.32,65.71,34.59,36.96
"2018-04-15 10:10:00",336362,0.237,344.3,6.902,100,27.24868,0,854.2638,0,-3.933,3.179,201,6.011,4.693,2.171409,0.08,55.32,65.71,34.59,36.96
"2018-04-15 10:20:00",336363,0.345,115.3,6.903,100,27.2644,0,854.2469,0,-3.985,3.18,202,6.021,4.688,2.220673,0.081,55.26,65.65,34.57,36.95
"2018-04-15 10:30:00",336364,0.69,297.3,6.651,100,29.31601,0.5,854.3376,0.5,-3.685,3.179,200,6.035,4.661,2.224463,0.076,55.32,65.71,34.59,36.96
"2018-04-15 10:40:00",336365,0.765,303.8,6.489,100,32.079,0.5,854.3185,0.5,-3.584,3.178,202,6.019,4.657,2.682997,0.083,55.26,65.65,34.57,36.95
"2018-04-15 10:50:00",336366,0.602,293.6,6.406,100,19.9069,0,854.3523,0,-3.637,3.18,205,6.036,4.655,1.728032,0.086,55.26,65.65,34.57,36.95
"2018-04-15 11:00:00",336367,0.988,307.3,6.201,100,24.8278,0,854.4218,0,-3.742,3.182,204,6.015,4.664,2.061527,0.083,55.26,65.71,34.57,36.96
"2018-04-15 11:10:00",336368,0.567,278.5,6.092,100,30.70482,0.5,854.2912,0.5,-3.673,3.181,202,6.027,4.707,2.739968,0.089,55.2,65.65,34.56,36.95
"2018-04-15 11:20:00",336369,1.033,333,6.183,99.9,41.00436,0,854.4113,0,-3.932,3.184,191,6.041,4.799,3.831567,0.093,55.2,65.71,34.56,36.96
"2018-04-15 11:30:00",336370,0.899,296.4,6.053,99.7,52.96624,0,854.3059,0,-4.037,3.186,200,6.029,4.844,4.98757,0.094,55.15,65.65,34.55,36.95
"2018-04-15 11:40:00",336371,0.45,295.7,6.059,100,57.50994,0,854.2449,0,-4.103,3.186,199,6.051,4.873,5.226678,0.091,55.2,65.65,34.56,36.95
"2018-04-15 11:50:00",336372,0.165,261,6.138,100,58.22631,0,854.2154,0,-4.082,3.184,200,6.066,4.885,5.227112,0.09,55.15,65.65,34.55,36.95
"2018-04-15 12:00:00",336373,0.359,333.3,6.264,100,62.7965,0,854.1501,0,-4.039,3.185,200,6.081,4.864,5.68974,0.091,55.09,65.65,34.53,36.95
"2018-04-15 12:10:00",336374,0.799,339.7,6.101,100,30.15061,0,854.2638,0,-3.99,3.185,196,6.073,4.861,2.695192,0.089,55.03,65.65,34.52,36.95
"2018-04-15 12:20:00",336375,0.954,268.9,5.817,100,63.51786,0,854.5692,0,-3.944,3.187,191,6.068,4.855,6.114474,0.096,55.03,65.65,34.52,36.95
"2018-04-15 12:30:00",336376,1.438,288.3,5.482,98.6,104.9221,0,854.7504,0,-3.643,3.185,196,6.035,4.839,10.53461,0.1,55.03,65.59,34.52,36.93
"2018-04-15 12:40:00",336377,1.424,296.9,5.456,93.8,125.3067,0,854.605,0,-3.668,3.185,197,6,4.831,13.16156,0.105,55.03,65.59,34.52,36.93
"2018-04-15 12:50:00",336378,0.723,284.8,5.481,95,122.4612,0,854.5229,0,-3.871,3.187,196,6.001,4.885,13.01761,0.106,54.92,65.52,34.49,36.92
"2018-04-15 13:00:00",336379,0.881,275.8,5.459,91.3,148.501,0,854.5397,0,-3.871,3.187,178,6.002,4.911,16.21335,0.109,54.92,65.09,34.49,36.82
"2018-04-15 13:10:00",336380,0.816,280.6,5.461,90.1,171.2419,0,854.525,0,-3.694,3.184,170,6.003,4.927,19.02619,0.111,54.92,64.85,34.49,36.77
"2018-04-15 13:20:00",336381,0.714,281.1,5.587,96.2,122.9773,0,854.624,0,-3.695,3.185,184,6.006,4.953,13.46126,0.109,54.8,64.73,34.46,36.74
"2018-04-15 13:30:00",336382,1.01,293.4,5.469,94.9,143.0596,0,854.6451,0,-3.769,3.186,177,6.005,4.992,15.97832,0.112,54.8,64.54,34.46,36.7
"2018-04-15 13:40:00",336383,0.53,253.3,5.512,96.7,135.8472,0,854.6451,0,-3.868,3.187,172,6.001,4.981,14.97734,0.11,54.8,64.42,34.46,36.68
"2018-04-15 13:50:00",336384,0.752,263.1,5.364,91.7,91.28484,0,854.6766,0,-3.814,3.188,172,5.994,4.952,9.870946,0.108,54.75,64.24,34.45,36.63
"2018-04-15 14:00:00",336385,0.725,236.8,5.174,94.7,124.2907,0,854.5292,0,-3.638,3.187,175,5.986,4.944,14.05555,0.113,54.75,64.12,34.45,36.61
"2018-04-15 14:10:00",336386,0.833,280.8,5.169,90.1,152.35,0,854.5755,0,-3.53,3.185,183,5.981,4.935,18.03913,0.118,54.75,63.99,34.45,36.58
"2018-04-15 14:20:00",336387,0.654,239.9,5.362,92.3,204.4606,0,854.782,0,-3.55,3.184,185,5.982,4.907,24.65279,0.12,54.75,63.93,34.45,36.57
"2018-04-15 14:30:00",336388,0.971,268.2,5.473,85.9,437.8392,0,854.7735,0,-3.418,3.181,184,5.991,4.883,48.3904,0.114,54.69,63.57,34.44,36.49
"2018-04-15 14:40:00",336389,0.793,227.4,6.141,82.4,412.1946,0,854.7946,0,-4.036,3.183,180,6.063,4.935,47.71109,0.121,54.69,63.51,34.44,36.47
"2018-04-15 14:50:00",336390,0.657,171.7,6.859,83.4,480.6806,0,854.7693,0,-3.639,3.176,182,6.049,4.939,58.448,0.122,54.63,63.45,34.42,36.46
"2018-04-15 15:00:00",336391,0.671,256.1,6.757,76.5,497.9313,0,854.7756,0,-3.638,3.179,193,6.01,4.882,42.06175,0.09,54.58,63.51,34.41,36.47
"2018-04-15 15:10:00",336392,0.573,253.9,6.517,77.5,254.6311,0,854.7967,0,-4.447,3.188,178,6.042,4.876,25.4964,0.103,54.58,63.45,34.41,36.46
"2018-04-15 15:20:00",336393,1.217,284.8,5.788,75.07,331.4896,0,854.9968,0,-4.098,3.189,177,6.051,4.873,24.85951,0.079,54.58,63.45,34.41,36.46
"2018-04-15 15:30:00",336394,0.887,257.5,5.589,78.43,199.8552,0,855.0178,0,-4.198,3.19,179,6.063,4.878,24.05984,0.123,54.52,63.39,34.4,36.44
"2018-04-15 15:40:00",336395,0.881,206,5.784,77.45,327.6719,0,855.2285,0,-3.842,3.184,197,6.106,4.877,32.61282,0.114,54.58,63.39,34.41,36.44
"2018-04-15 15:50:00",336396,1.36,26.63,5.942,70.92,240.1916,0,855.2706,0,-3.311,3.179,187,6.162,4.874,24.82152,0.113,54.52,63.39,34.4,36.44
"2018-04-15 16:00:00",336397,0.742,137.4,6.057,71.58,156.1149,0,855.2748,0,-4.599,3.19,187,6.164,4.874,21.08124,0.135,54.46,63.32,34.38,36.43
"2018-04-15 16:10:00",336398,1.063,9.17,6.229,68.78,179.4923,0,855.2896,0,-4.852,3.194,191,6.192,4.877,24.16971,0.134,54.52,63.32,34.4,36.43
"2018-04-15 16:20:00",336399,1.365,314,5.266,68.45,68.71321,0,855.5086,0,-4.605,3.199,188,6.18,4.93,6.41191,0.09,54.46,63.26,34.38,36.42
"2018-04-15 16:30:00",336400,0.825,337.5,4.454,73.68,61.03343,0,855.7782,0,-4.353,3.198,184,6.224,4.957,5.680527,0.093,54.41,63.2,34.37,36.4
"2018-04-15 16:40:00",336401,1.807,285.6,4.081,72.09,42.8755,0,855.6076,0,-4.102,3.198,187,6.253,4.958,4.001759,0.093,54.29,63.2,34.34,36.4
"2018-04-15 16:50:00",336402,1.828,299.2,3.966,74.04,49.48624,0,855.7803,0,-4.304,3.2,191,6.269,4.987,5.115885,0.103,54.29,63.2,34.34,36.4
"2018-04-15 17:00:00",336403,0.46,282,4.052,76.32,92.89626,0,855.8477,0,-4.304,3.2,179,6.337,4.999,12.00149,0.128,54.24,63.14,34.33,36.39
"2018-04-15 17:10:00",336404,0.418,270.6,3.741,81.3,57.52421,0,855.9193,0,-4.307,3.202,188,6.344,5.001,6.635552,0.114,54.12,63.14,34.3,36.39
"2018-04-15 17:20:00",336405,0.534,303,3.397,84.5,46.52709,0,855.8898,0,-4.354,3.204,185,6.365,5.022,5.817505,0.123,54.07,62.96,34.29,36.35
"2018-04-15 17:30:00",336406,0.576,334.5,3.349,84.7,61.70202,0,856.0793,0,-4.391,3.205,188,6.396,5.053,8.133967,0.13,54.07,62.84,34.29,36.32
"2018-04-15 17:40:00",336407,0.839,20.62,3.089,84.8,40.21376,0,856.2858,0,-4.121,3.204,182,6.414,5.071,5.155171,0.128,54.07,62.78,34.29,36.31
"2018-04-15 17:50:00",336408,0.899,313.4,2.879,86.3,38.77656,0,856.3132,0,-4.603,3.209,189,6.424,5.082,5.348722,0.138,54.07,62.78,34.29,36.31
"2018-04-15 18:00:00",336409,1.172,302.9,2.7,85.3,27.58402,0,856.5449,0,-4.403,3.209,183,6.433,5.087,3.495116,0.124,54.01,62.72,34.27,36.3
"2018-04-15 18:10:00",336410,1.28,289.3,2.406,85.7,23.53072,0,856.7656,0,-4.603,3.213,184,6.391,5.089,3.377625,0.142,54.01,62.66,34.27,36.28
"2018-04-15 18:20:00",336411,1.325,301.6,1.943,88,6.29453,0,856.9098,0,-4.451,3.214,192,6.372,5.088,0.5307167,0.079,53.95,62.66,34.26,36.28
"2018-04-15 18:30:00",336412,1.227,295.3,1.617,90.2,0.5268379,0,857.0629,0,-4.824,3.22,170,6.353,5.089,0.003790836,0.001,53.95,62.6,34.26,36.27
"2018-04-15 18:40:00",336413,0.57,284.6,1.33,90.7,0,0,857.3383,0,-4.597,3.219,182,6.388,5.09,0,0,53.95,62.54,34.26,36.25
"2018-04-15 18:50:00",336414,1.59,299.7,1.12,91.4,0,0,857.4908,0,-4.27,3.216,186,6.367,5.093,0,0,53.9,62.48,34.25,36.24
"2018-04-15 19:00:00",336415,1.181,294,0.988,93,0,0,857.7086,0,-4.319,3.218,189,6.297,5.091,0,0,53.9,62.48,34.25,36.24
"2018-04-15 19:10:00",336416,1.272,295.4,0.852,91.8,0,0,857.7303,0,-4.067,3.216,180,6.301,5.098,0,0,53.84,62.42,34.23,36.23
"2018-04-15 19:20:00",336417,0.991,276.4,0.732,92.7,0,0,857.8738,0,-3.841,3.214,189,6.301,5.118,0,0,53.84,62.36,34.23,36.21
"2018-04-15 19:30:00",336418,0.941,269.4,0.642,92.4,0,0,858.0403,0,-4.069,3.217,181,6.243,5.139,0,0,53.84,62.36,34.23,36.21
"2018-04-15 19:40:00",336419,1.143,285.7,0.679,90.2,0,0,858.1815,0,-4.177,3.218,182,6.189,5.156,0,0,53.78,62.3,34.22,36.2
"2018-04-15 19:50:00",336420,1.439,282.8,0.602,89.5,0,0,858.2047,0,-3.843,3.215,190,6.246,5.173,0,0,53.78,62.3,34.22,36.2
"2018-04-15 20:00:00",336421,0.714,273.4,0.606,87.6,0,0,858.3726,0,-4.309,3.219,181,6.207,5.215,0,0,53.73,62.3,34.21,36.2
"2018-04-15 20:10:00",336422,0.458,214,0.537,88.9,0,0,858.4944,0,-3.938,3.216,186,6.209,5.226,0,0,53.73,62.24,34.21,36.19
"2018-04-15 20:20:00",336423,0.49,263.3,0.451,88.3,0,0,858.6918,0,-4.114,3.219,173,6.219,5.23,0,0,53.67,62.24,34.19,36.19
"2018-04-15 20:30:00",336424,0.678,272.5,0.421,89.3,0,0,858.8299,0,-4.015,3.218,178,6.182,5.234,0,0,53.67,62.18,34.19,36.17
"2018-04-15 20:40:00",336425,0.791,285.6,0.39,89.3,0,0,858.9651,0,-4.765,3.225,186,6.132,5.22,0,0,53.67,62.18,34.19,36.17
"2018-04-15 20:50:00",336426,0.716,253.5,0.296,94.1,0,0,858.9851,0,-4.138,3.22,182,6.147,5.233,0,0,53.61,62.12,34.18,36.16
"2018-04-15 21:00:00",336427,1.039,280.7,0.208,96.9,0,0,858.9796,0,-4.213,3.221,181,6.046,5.208,0,0,53.61,62.12,34.18,36.16
"2018-04-15 21:10:00",336428,1.576,288.1,0.223,95.6,0,0,859.0225,0,-3.813,3.217,182,6.048,5.221,0,0,53.61,62.06,34.18,36.15
"2018-04-15 21:20:00",336429,1.447,281.5,0.314,94.7,0,0,859.1743,0,-4.289,3.221,186,6.049,5.223,0,0,53.56,62.06,34.17,36.15
"2018-04-15 21:30:00",336430,0.523,295,0.385,96,0,0,859.3408,0,-4.565,3.223,181,5.959,5.222,0,0,53.56,62,34.17,36.13
"2018-04-15 21:40:00",336431,0.228,282.1,0.368,97.6,0,0,859.3935,0,-4.489,3.223,173,5.946,5.221,0,0,53.56,62,34.17,36.13
"2018-04-15 21:50:00",336432,0.347,153,0.293,96.7,0,0,859.4968,0,-4.514,3.223,174,5.883,5.218,0,0,53.56,62,34.17,36.13
"2018-04-15 22:00:00",336433,0.377,208.5,0.325,98.8,0,0,859.4968,0,-4.413,3.223,169,5.872,5.216,0.00379213,0,53.5,61.94,34.15,36.12
"2018-04-15 22:10:00",336434,0.219,245,0.33,99.5,0,0,859.4926,0,-4.565,3.223,170,5.913,5.214,0.00379213,0,53.5,61.94,34.15,36.12
"2018-04-15 22:20:00",336435,0.285,195.8,0.349,99.8,0,0,859.4947,0,-4.565,3.223,168,5.835,5.209,0.02275278,0,53.5,61.94,34.15,36.12
"2018-04-15 22:30:00",336436,0.335,174.4,0.366,99.8,0,0,859.2586,0,-4.589,3.224,186,5.786,5.197,0,0,53.5,61.94,34.15,36.12
"2018-04-15 22:40:00",336437,0.596,189.7,0.256,100,0,0,859.246,0,-4.513,3.224,190,5.795,5.192,0,0,53.5,61.88,34.15,36.11
"2018-04-15 22:50:00",336438,0.367,182.1,0.239,100,0,0,859.2313,0,-4.513,3.224,179,5.699,5.185,0,0,53.5,61.88,34.15,36.11
"2018-04-15 23:00:00",336439,0.285,266.9,0.195,98.6,0,0,859.3914,0,-4.487,3.224,187,5.699,5.185,0,0,53.5,61.82,34.15,36.09
"2018-04-15 23:10:00",336440,0.217,263,0.165,99.6,0,0,859.4989,0,-4.487,3.224,170,5.662,5.199,0.01137639,0,53.45,61.82,34.14,36.09
"2018-04-15 23:20:00",336441,0.831,285.2,0.04,95.3,0,0,859.4989,0,-4.561,3.225,183,5.601,5.201,0,0,53.45,61.76,34.14,36.08
"2018-04-15 23:30:00",336442,1.102,283.8,0.065,92.5,0,0,859.5726,0,-4.011,3.22,174,5.618,5.224,0,0,53.45,61.76,34.14,36.08
"2018-04-15 23:40:00",336443,0.671,277.5,0.08,92.4,0,0,859.6359,0,-4.561,3.225,172,5.574,5.235,0,0,53.45,61.76,34.14,36.08
"2018-04-15 23:50:00",336444,1.071,286.4,0.037,93.7,0,0,859.7097,0.5,-4.511,3.225,192,5.526,5.235,0,0,53.45,61.7,34.14,36.06
